Flag for Germany Weather for the Past 2 Weeks in Osterholz-Scharmbeck, Lower Saxony, Germany

Now
41 °F

Light rain. Passing clouds.


Feels Like: 33 °F
Forecast: 37 / 42 °F
Wind: 16 mph from West

Location: Bremen Airport

Current Time: Feb 10, 2016 at 11:35:27 PM

Latest Report: Feb 10, 2016 at 10:50 PM


Visibility: N/A

Pressure: 29.36 "Hg

Humidity: 93%

Dew point: 39 °F

Location of Osterholz-ScharmbeckLocation

Historic Weather in Osterholz-Scharmbeck — Graph

°F

Osterholz-Scharmbeck Temperature Yesterday

Maximum temperature yesterday: 46 °F (at 10:50 AM)
Minimum temperature yesterday: 32 °F (at 9:50 PM)
Average temperature yesterday: 42 °F

High & Low Weather Summary for the Past Weeks

 TemperatureHumidityPressure
High54 °F (Jan 27, 6:20 PM)100% (Jan 28, 1:20 AM)30.24 "Hg (Jan 28, 1:20 AM)
Low32 °F (Feb 4, 10:50 PM)61% (Feb 3, 1:20 PM)28.74 "Hg (Feb 9, 8:20 PM)
Average44 °F83%29.73 "Hg
* Reported Jan 26 9:20 PM — Feb 10 9:50 PM, Osterholz-Scharmbeck, Weather by CustomWeather, © 2016

Note: Actual official high and low records may vary slightly from our data, if they occured in-between our weather recording intervals... More about our weather records

Advertising

Osterholz-Scharmbeck Weather History for the Previous 24 Hours

 ConditionsComfort  
Time TempWeatherWind HumidityBarometerVisibility
9:50 PM
Wed, Feb 10
41 °FLight rain. Passing clouds.17 mph93%29.33 "HgN/A
9:20 PM41 °FLight rain. Passing clouds.16 mph93%29.33 "HgN/A
8:50 PM43 °FPassing clouds.15 mph87%29.30 "HgN/A
8:20 PM41 °FPassing clouds.15 mph93%29.30 "HgN/A
7:50 PM43 °FPassing clouds.16 mph87%29.30 "HgN/A
7:20 PM41 °FPartly cloudy.14 mph93%29.27 "HgN/A
6:50 PM41 °FSprinkles. Passing clouds.15 mph93%29.27 "HgN/A
6:20 PM41 °FSprinkles. Passing clouds.15 mph93%29.27 "HgN/A
5:50 PM41 °FSprinkles. Passing clouds.15 mph93%29.27 "HgN/A
5:20 PM41 °FSprinkles. Partly sunny.10 mph93%29.24 "HgN/A
4:50 PM41 °FSprinkles. Partly sunny.10 mph93%29.24 "HgN/A
4:20 PM43 °FBroken clouds.12 mph81%29.24 "HgN/A
3:50 PM43 °FPartly sunny.10 mph87%29.24 "HgN/A
3:20 PM41 °FPartly sunny.12 mph93%29.24 "HgN/A
2:50 PM41 °FPartly sunny.12 mph87%29.24 "HgN/A
2:20 PM39 °FDrizzle. Partly sunny.12 mph93%29.24 "HgN/A
1:50 PM39 °FDrizzle. Partly sunny.12 mph87%29.24 "Hg6 mi
1:20 PM39 °FBroken clouds.14 mph93%29.24 "HgN/A
12:50 PM39 °FPartly sunny.13 mph87%29.21 "HgN/A
12:20 PM39 °FPartly sunny.14 mph87%29.24 "HgN/A
11:50 AM39 °FPartly sunny.14 mph87%29.21 "HgN/A
11:20 AM39 °FPartly sunny.14 mph87%29.21 "HgN/A
10:50 AM39 °FPartly sunny.10 mph87%29.21 "HgN/A
10:20 AM39 °FPartly sunny.12 mph81%29.21 "HgN/A
9:50 AM37 °FPartly sunny.8 mph93%29.21 "HgN/A
9:20 AM37 °FPartly sunny.10 mph87%29.18 "HgN/A
8:50 AM37 °FScattered clouds.13 mph87%29.18 "HgN/A
8:20 AM37 °FPartly sunny.13 mph87%29.18 "HgN/A
7:50 AM37 °FPassing clouds.12 mph87%29.18 "HgN/A
7:20 AM37 °FPassing clouds.10 mph87%29.18 "HgN/A
6:50 AM37 °FPassing clouds.9 mph87%29.18 "HgN/A
6:20 AM36 °FLight rain. Passing clouds.12 mph93%29.18 "HgN/A
5:50 AM36 °FLight rain. Passing clouds.14 mph93%29.15 "HgN/A
5:20 AM36 °FLight rain. Passing clouds.9 mph93%29.15 "HgN/A
4:20 AM37 °FChilly.15 mph87%29.15 "HgN/A
3:50 AM36 °FPassing clouds.14 mph93%29.15 "HgN/A
3:20 AM36 °FPassing clouds.13 mph93%29.15 "HgN/A
2:20 AM36 °FPassing clouds.16 mph100%29.12 "HgN/A
1:20 AM36 °FPassing clouds.16 mph100%29.09 "HgN/A
12:20 AM34 °FLight rain. Partly cloudy.14 mph100%29.06 "HgN/A
11:50 PM
Tue, Feb 9
36 °FLight rain. Partly cloudy.17 mph93%29.03 "HgN/A
11:20 PM34 °FLight rain. Passing clouds.21 mph100%29.00 "HgN/A
Weather by CustomWeather, © 2016

See weather overviewHow to use our weather pages